www.pogodaiklimat.ru

Погода и климат >> Архив погоды >> Норвегия >> Хемседал


ПОГОДА в Хемседале

  • Прогноз погоды в Хемседале
  • Монитор погоды в Хемседале

АРХИВ ПОГОДЫ в Хемседале

Время (UTC), дата Ветер
(напр.,м/с)
 
Видим.   Явления Облачность Т
(С)
Тd
(С)
f
(%)
Тe
(С)
Тes
(С)
Комфортность P
(гПа)
Po
(гПа)
Тmin
(С)
Tmax
(С)
R
(мм)
R24
(мм)
S
(см)
22 8.06 В 3
{4}
н/о н/о +7.6 +7.0 96 +5 +5 1009.8 916.8
23 8.06 В 3
{5}
н/о н/о +7.6 +7.3 98 +5 +5 1009.5 916.5
00 9.06 В 5
{11}
н/о н/о +7.7 +7.4 98 +4 +4 1009.1 916.2
01 9.06 В 5
{7}
н/о н/о +7.5 +7.2 98 +3 +3 1009.1 916.1
02 9.06 В 5
{8}
н/о н/о +7.3 +7.0 98 +3 +3 1008.9 915.9
03 9.06 В 4
{7}
н/о н/о +7.1 +6.8 98 +3 +3 1008.7 915.6
04 9.06 В 3
{6}
н/о н/о +7.1 +6.8 98 +4 +4 1008.6 915.5
05 9.06 ЮВ 6
{8}
н/о н/о +7.4 +7.1 98 +3 +3 1008.5 915.5
06 9.06 В 4
{8}
н/о н/о +7.6 +7.3 98 +4 +4 1008.5 915.6 +7.0 +9.6
07 9.06 В 4
{6}
н/о н/о +9.3 +9.0 98 +6 +6 1008.0 915.7
08 9.06 В 4
{7}
н/о н/о +9.2 +8.9 98 +6 +6 1008.5 916.1
09 9.06 В 4
{6}
н/о н/о +10.4 +8.0 85 +8 +8 1008.2 916.2
10 9.06 С 2
{10}
н/о н/о +9.2 +8.0 92 +7 +7 1009.1 916.6
11 9.06 З 2
{9}
н/о н/о +9.6 +6.0 78 +8 +8 1009.4 917.0
12 9.06 СЗ 2
{10}
н/о н/о +11.8 +6.5 70 +11 +11 1008.5 916.9
13 9.06 ЮЗ 6
{10}
н/о н/о +12.1 +4.6 60 +10 +10 1008.7 917.2
14 9.06 З 3
{11}
н/о н/о +11.6 +5.3 65 +10 +10 1009.2 917.5
15 9.06 З 7
{12}
н/о н/о +11.2 +4.2 62 +8 +8 1009.5 917.6
16 9.06 З 8
{15}
н/о н/о +11.4 +3.7 59 +8 +8 1010.0 918.1
17 9.06 З 7
{13}
н/о н/о +10.9 +3.7 61 +8 +8 1010.4 918.4
18 9.06 З 8
{15}
н/о н/о +10.7 +3.0 59 +7 +7 1011.3 919.1 +7.4 +12.9
19 9.06 З 5
{12}
н/о н/о +10.3 +3.6 63 +8 +8 1011.9 919.5
20 9.06 З 5
{9}
н/о н/о +9.6 +3.2 64 +7 +7 1012.5 919.9
21 9.06 З 5
{8}
н/о н/о +9.3 +3.5 67 +6 +6 1013.2 920.4
22 9.06 З 6
{9}
н/о н/о +8.9 +2.7 65 +5 +5 1013.8 920.8
23 9.06 З 3
{9}
н/о н/о +8.2 +2.9 69 +6 +6 1014.1 920.9
00 10.06 З 6
{12}
н/о н/о +8.6 +2.2 64 +5 +5 1014.3 921.2
01 10.06 З 5
{12}
н/о н/о +8.3 +1.7 63 +5 +5 1014.5 921.3
02 10.06 З 4
{8}
н/о н/о +7.4 +2.3 70 +4 +4 1015.2 921.6
03 10.06 З 5
{8}
н/о н/о +7.7 +1.1 63 +4 +4 1015.4 921.9
04 10.06 З 4
{8}
н/о н/о +7.1 +1.6 68 +4 +4 1016.2 922.4
05 10.06 З 3
{7}
н/о н/о +7.7 +2.0 67 +5 +5 1016.3 922.7
06 10.06 СЗ 4
{12}
н/о н/о +9.7 +1.4 56 +7 +7 1015.8 922.9 +6.8 +10.7
07 10.06 СЗ 4
{8}
н/о н/о +8.9 +0.6 56 +6 +6 1016.7 923.5
08 10.06 З 4
{8}
н/о н/о +10.8 +1.4 52 +9 +9 1016.2 923.6
09 10.06 З 5
{9}
н/о н/о +10.6 +0.9 51 +8 +8 1016.7 924.0
10 10.06 З 4
{8}
н/о н/о +11.5 +2.3 53 +10 +10 1016.9 924.4
11 10.06 З 3
{8}
н/о н/о +11.9 +0.7 46 +11 +11 1016.9 924.5
12 10.06 З 4
{9}
н/о н/о +12.1 -1.4 39 +11 +11 1016.6 924.4
13 10.06 З 5
{9}
н/о н/о +13.0 +0.4 42 +11 +11 1016.7 924.6
14 10.06 З 4
{9}
н/о н/о +13.6 -0.4 38 +12 +12 1016.7 924.8
15 10.06 З 6
{9}
н/о н/о +12.4 -2.2 36 +10 +10 1017.1 924.9
16 10.06 З 5
{8}
н/о н/о +13.8 -0.2 38 +12 +12 1016.9 925.1
17 10.06 З 5
{8}
н/о н/о +12.8 -1.5 37 +11 +11 1017.5 925.4
18 10.06 З 4
{9}
н/о н/о +12.4 -1.5 38 +11 +11 1017.8 925.5 +8.9 +14.1
19 10.06 З 4
{8}
н/о н/о +11.6 -1.2 41 +10 +10 1018.0 925.5
20 10.06 СЗ 4
{7}
н/о н/о +9.8 -0.1 50 +8 +8 1019.3 926.1
21 10.06 СЗ 5
{6}
н/о н/о +8.6 +0.8 58 +5 +5 1020.3 926.6
22 10.06 З 5
{6}
н/о н/о +7.6 +1.5 65 +4 +4 1021.0 927.0
23 10.06 СЗ 5
{6}
н/о н/о +6.1 +1.5 72 +2 +2 1021.9 927.3
00 11.06 СЗ 6
{8}
н/о н/о +4.9 +1.2 77 -0 -0 1022.4 927.4
01 11.06 СЗ 6
{7}
н/о н/о +4.9 +1.4 78 -0 -0 1022.3 927.3
02 11.06 СЗ 6
{8}
н/о н/о +4.1 +1.2 81 -1 -1 1022.5 927.2
03 11.06 СЗ 4
{7}
н/о н/о +3.7 +0.9 82 -1 -1 1023.2 927.7
04 11.06 СЗ 5
{6}
н/о н/о +4.0 +0.9 80 -1 -1 1023.7 928.3
05 11.06 СЗ 4
{6}
н/о н/о +4.9 +1.2 77 +1 +1 1023.6 928.4
06 11.06 СЗ 1
{8}
н/о н/о +8.8 +1.5 60 +9 +9 1022.4 928.6 +3.6 +12.4
07 11.06 В 4
{6}
н/о н/о +11.7 +3.2 56 +10 +10 1021.5 928.7
08 11.06 В 6
{10}
н/о н/о +11.6 +4.6 62 +9 +9 1021.9 929.0
09 11.06 В 5
{9}
н/о н/о +14.5 +5.6 55 +13 +13 1021.0 929.1
10 11.06 ЮВ 7
{11}
н/о н/о +13.8 +3.9 51 +12 +12 1021.3 929.1
11 11.06 ЮВ 8
{11}
н/о н/о +16.4 +3.5 42 +15 +15 1020.1 928.8
12 11.06 В 8
{12}
н/о н/о +16.4 +3.1 41 +15 +15 1020.1 928.7
13 11.06 ЮВ 8
{12}
н/о н/о +15.9 +2.0 39 +14 +14 1020.1 928.7
14 11.06 В 9
{13}
н/о н/о +16.7 +2.0 37 +15 +15 1019.7 928.6
15 11.06 ЮВ 7
{13}
н/о н/о +16.9 +1.8 36 +16 +16 1019.9 928.8
16 11.06 В 9
{15}
н/о н/о +15.3 +2.8 43 +13 +13 1020.4 928.8
17 11.06 В 9
{13}
н/о н/о +15.0 +3.2 45 +13 +13 1020.9 929.1
18 11.06 В 8
{15}
н/о н/о +14.4 +3.9 49 +12 +12 1021.3 929.3 +8.7 +17.4
19 11.06 В 8
{11}
н/о н/о +13.9 +4.0 51 +12 +12 1021.8 929.6
20 11.06 В 7
{11}
н/о н/о +13.3 +4.0 53 +11 +11 1022.1 929.7
21 11.06 В 7
{10}
н/о н/о +13.0 +3.9 54 +11 +11 1022.5 930.0
22 11.06 В 10
{14}
н/о н/о +13.0 +3.9 54 +10 +10 1022.2 929.7
23 11.06 В 10
{15}
н/о н/о +11.2 +6.2 71 +7 +7 1023.5 930.4
00 12.06 В 8
{15}
н/о н/о +8.3 +7.6 95 +3 +3 1025.3 931.1
01 12.06 В 6
{11}
н/о н/о +7.5 +7.2 98 +3 +3 1025.9 931.4
02 12.06 В 5
{9}
н/о н/о +7.3 +7.0 98 +3 +3 1025.7 931.1
03 12.06 В 9
{12}
н/о н/о +6.9 +6.6 98 +1 +1 1025.6 930.9
04 12.06 В 4
{12}
н/о н/о +6.5 +6.2 98 +3 +3 1026.3 931.4
05 12.06 В 3
{6}
н/о н/о +6.4 +6.1 98 +3 +3 1025.8 930.9
06 12.06 ЮВ 7
{12}
н/о н/о +6.6 +6.0 96 +1 +1 1025.4 930.6 +6.3 +14.5
07 12.06 В 6
{10}
н/о н/о +6.7 +6.3 97 +2 +2 1025.0 930.3
08 12.06 В 3
{9}
н/о н/о +6.9 +6.5 97 +4 +4 1025.0 930.4
09 12.06 В 7
{12}
н/о н/о +7.0 +5.5 90 +2 +2 1024.7 930.1
10 12.06 ЮВ 9
{12}
н/о н/о +6.6 +5.4 92 +1 +1 1024.0 929.4
11 12.06 В 6
{13}
н/о н/о +6.0 +4.3 89 +1 +1 1024.1 929.3
12 12.06 В 4
{13}
н/о н/о +6.0 +4.0 87 +2 +2 1024.0 929.1
13 12.06 В 3
{5}
н/о н/о +6.5 +5.0 90 +3 +3 1023.3 928.7
14 12.06 В 6
{10}
н/о н/о +6.4 +3.0 79 +2 +2 1022.7 928.1
15 12.06 В 3
{8}
н/о н/о +6.6 +2.9 77 +4 +4 1022.3 927.8
16 12.06 ЮВ 5
{8}
н/о н/о +6.1 +3.3 82 +2 +2 1022.1 927.5
17 12.06 В 1
{7}
н/о н/о +6.0 +4.7 91 +5 +5 1021.5 926.9
18 12.06 В 3
{10}
н/о н/о +6.0 +4.2 88 +3 +3 1020.6 926.1 +5.4 +7.2
19 12.06 В 5
{8}
н/о н/о +5.5 +4.3 92 +1 +1 1020.1 925.5
20 12.06 В 4
{8}
н/о н/о +5.4 +4.1 91 +1 +1 1019.7 925.1
21 12.06 В 5
{10}
н/о н/о +5.1 +4.2 94 0 0 1019.5 924.8
22 12.06 В 4
{6}
н/о н/о +5.0 +4.3 95 +1 +1 1019.0 924.3
23 12.06 В 5
{8}
н/о н/о +5.0 +4.1 94 0 0 1017.7 923.1
00 13.06 В 4
{10}
н/о н/о +4.6 +4.2 97 0 0 1016.8 922.2
01 13.06 В 2
{6}
н/о н/о +4.5 +4.1 97 +2 +2 1016.0 921.4
02 13.06 СВ 1
{3}
н/о н/о +4.5 +4.2 98 +3 +3 1014.6 920.2
03 13.06 С 1
{2}
н/о н/о +4.5 +4.2 98 +3 +3 1013.3 919.0
04 13.06 В 3
{4}
н/о н/о +4.6 +4.3 98 +1 +1 1012.4 918.2
05 13.06 С 2
{4}
н/о н/о +4.7 +4.4 98 +2 +2 1011.1 917.1
06 13.06 ЮВ 6
{8}
н/о н/о +5.2 +4.9 98 -0 -0 1011.5 917.6 +4.4 +6.0
07 13.06 В 4
{9}
н/о н/о +5.4 +5.1 98 +1 +1 1011.3 917.5
08 13.06 В 2
{6}
н/о н/о +6.1 +5.7 97 +3 +3 1011.0 917.4
09 13.06 В 1
{4}
н/о н/о +6.3 +5.9 97 +5 +5 1011.0 917.5
10 13.06 В 4
{6}
н/о н/о +6.7 +6.0 95 +3 +3 1011.1 917.7
11 13.06 В 5
{7}
н/о н/о +7.0 +6.3 95 +3 +3 1011.2 917.8
12 13.06 В 3
{9}
н/о н/о +7.9 +6.8 93 +5 +5 1011.4 918.3
13 13.06 ЮВ 4
{7}
н/о н/о +8.3 +6.9 91 +5 +5 1011.7 918.7
14 13.06 В 6
{9}
н/о н/о +8.0 +7.4 96 +4 +4 1011.9 918.8
15 13.06 В 5
{8}
н/о н/о +8.1 +7.8 98 +4 +4 1012.1 919.1
16 13.06 В 4
{7}
н/о н/о +8.2 +7.9 98 +5 +5 1012.7 919.6
17 13.06 В 3
{5}
н/о н/о +8.4 +8.1 98 +6 +6 1013.1 920.0
18 13.06 В 2
{9}
н/о н/о +8.9 +8.6 98 +7 +7 1013.5 920.6 +5.2 +8.9
19 13.06 В 3
{5}
н/о н/о +9.0 +8.7 98 +6 +6 1014.1 921.1
20 13.06 ЮВ 6
{8}
н/о н/о +9.3 +9.0 98 +5 +5 1014.3 921.4
21 13.06 В 5
{7}
н/о н/о +8.7 +8.4 98 +5 +5 1015.4 922.2
22 13.06 В 4
{8}
н/о н/о +8.3 +8.0 98 +5 +5 1016.2 922.8
23 13.06 ЮВ 4
{7}
н/о н/о +8.3 +8.0 98 +5 +5 1016.8 923.3
00 14.06 ЮВ 3
{8}
н/о н/о +7.9 +7.6 98 +5 +5 1017.1 923.5
01 14.06 В 3
{5}
н/о н/о +7.9 +7.6 98 +5 +5 1016.8 923.2
02 14.06 В 3
{4}
н/о н/о +7.7 +7.4 98 +5 +5 1017.2 923.5
03 14.06 ЮВ 3
{5}
н/о н/о +7.6 +7.3 98 +5 +5 1018.1 924.3
04 14.06 В 4
{6}
н/о н/о +7.6 +7.3 98 +4 +4 1017.9 924.1
05 14.06 В 3
{5}
н/о н/о +9.2 +8.9 98 +7 +7 1017.4 924.2
06 14.06 В 4
{6}
н/о н/о +9.0 +8.2 95 +6 +6 1017.9 924.6 +7.6 +10.0
07 14.06 В 3
{5}
н/о н/о +10.6 +7.1 79 +9 +9 1017.7 924.9
08 14.06 В 2
{5}
н/о н/о +10.9 +6.7 75 +10 +10 1017.5 924.8
09 14.06 В 4
{7}
н/о н/о +13.1 +7.1 67 +12 +12 1017.1 925.1
10 14.06 ЮВ 5
{7}
н/о н/о +12.5 +6.3 66 +10 +10 1017.4 925.2
11 14.06 В 6
{9}
н/о н/о +13.0 +7.5 69 +11 +11 1017.6 925.5
12 14.06 В 6
{10}
н/о н/о +15.1 +8.6 65 +14 +14 1016.8 925.4
13 14.06 ЮВ 7
{10}
н/о н/о +13.8 +7.1 64 +12 +12 1017.3 925.4
14 14.06 В 5
{10}
н/о н/о +13.8 +7.1 64 +12 +12 1016.6 925.0
15 14.06 В 5
{8}
н/о н/о +12.8 +7.9 72 +11 +11 1017.1 925.0
16 14.06 В 4
{7}
н/о н/о +12.7 +8.0 73 +11 +11 1017.3 925.2
17 14.06 ЮВ 3
{5}
н/о н/о +13.0 +7.7 70 +12 +12 1017.0 925.0
18 14.06 В 3
{10}
н/о н/о +14.1 +7.2 63 +13 +13 1016.3 924.7 +9.0 +15.9
19 14.06 В 4
{7}
н/о н/о +12.3 +8.2 76 +10 +10 1017.4 925.1
20 14.06 В 4
{7}
н/о н/о +11.4 +8.4 82 +9 +9 1017.9 925.3
21 14.06 СВ 2
{6}
н/о н/о +11.3 +7.0 75 +10 +10 1018.5 925.8
22 14.06 В 1
{3}
н/о н/о +11.3 +6.9 74 +11 +11 1018.8 926.1
23 14.06 Ю 2
{3}
н/о н/о +10.4 +6.2 75 +9 +9 1018.8 925.9
00 15.06 З 1
{7}
н/о н/о +9.1 +7.1 87 +8 +8 1019.8 926.3
01 15.06 З 2
{5}
н/о н/о +8.9 +6.0 82 +7 +7 1019.9 926.3
02 15.06 СЗ 6
{7}
н/о н/о +6.8 +5.1 89 +2 +2 1020.3 926.0
03 15.06 СЗ 3
{7}
н/о н/о +6.4 +4.4 87 +3 +3 1020.6 926.2
04 15.06 СЗ 3
{5}
н/о н/о +6.9 +4.6 85 +4 +4 1020.7 926.4
05 15.06 СВ 1
{3}
н/о н/о +8.7 +5.6 81 +8 +8 1020.3 926.6
06 15.06 В 2
{7}
н/о н/о +10.8 +6.6 75 +10 +10 1019.2 926.3 +6.1 +14.1
07 15.06 ЮВ 1
{3}
н/о н/о +12.6 +6.7 67 +13 +13 1018.7 926.4
08 15.06 ЮВ 2
{4}
н/о н/о +14.9 +6.2 56 +15 +15 1017.8 926.3
09 15.06 ЮВ 2
{4}
н/о н/о +16.2 +4.0 44 +16 +16 1017.1 926.0
10 15.06 В 4
{5}
н/о н/о +18.5 +4.7 40 +19 +19 1015.9 925.7
11 15.06 В 4
{7}
н/о н/о +19.6 +4.2 36 +20 +20 1015.3 925.4
12 15.06 В 4
{7}
н/о н/о +19.8 +3.5 34 +20 +20 1015.1 925.2
13 15.06 ЮВ 4
{8}
н/о н/о +19.8 +3.5 34 +20 +20 1014.6 924.7
14 15.06 ЮВ 4
{8}
н/о н/о +19.6 +2.9 33 +20 +20 1014.2 924.3
15 15.06 ЮВ 6
{9}
н/о н/о +20.0 +4.1 35 +20 +20 1013.4 923.8
16 15.06 ЮВ 6
{10}
н/о н/о +18.8 +3.1 35 +19 +19 1013.5 923.5
17 15.06 ЮВ 4
{8}
н/о н/о +19.4 +3.2 34 +20 +20 1012.9 923.1
18 15.06 ЮВ 4
{10}
н/о н/о +18.9 +3.1 35 +19 +19 1012.7 922.8 +10.8 +21.2
19 15.06 ЮВ 5
{7}
н/о н/о +18.0 +3.1 37 +18 +18 1012.9 922.8
20 15.06 В 4
{7}
н/о н/о +15.8 +3.9 45 +15 +15 1013.7 922.9
21 15.06 В 3
{6}
н/о н/о +15.0 +5.5 53 +14 +14 1014.5 923.3
22 15.06 ЮЗ 1
{5}
н/о н/о +14.8 +5.9 55 +15 +15 1014.1 922.9

 

Местоположение метеостанции Хемседал (Норвегия): широта 60.87 долгота 8.52 высота над уровнем моря 807 м.

В архиве по умолчанию представлена погода в Хемседале за последнюю неделю. Архивные данные за месяц целиком и за предыдущие месяцы, начиная с января 2011 года, Вы можете получить, выбрав интересующий диапазон дат из раскрывающегося списка и нажав кнопку "Ввод!".


*Определитесь, кто Вы:
робот инопланетянин человек

Внимание! Время в таблицах - всемирное. Для получения местного времени необходимо прибавить поправку, которая равна 1 ч.

Смотрите также архив погоды в соседних городах и на ближайших метеорологических станциях:

Погода в Хемседале II (Норвегия) (4 км)
Погода в Локен и Волбу (Норвегия) (40 км)
Погода в Филефеле (Норвегия) (41 км)
Погода в Фагернесе (Норвегия) (41 км)
Погода в Гейло (Норвегия) (42 км)
Погода в Фагернес аэропорту (Норвегия) (45 км)
Погода в Несбен-Тодокке (Норвегия) (47 км)
Погода в Бейтостолене (Норвегия) (47 км)
Погода в Гейло аэропорту (Норвегия) (50 км)
Погода в Лардале (Норвегия) (61 км)

Пояснения к столбцам:

Ветер - указаны скорость ветра в м/с - средняя за 10 мин, порывы в срок и между сроками (в фигурных скобках) и направление, откуда дует ветер: С - северный, СВ - северо-восточный, В - восточный, ЮВ - юго-восточный, Ю - южный, ЮЗ - юго-западный, З - западный, СЗ - северо-западный.
Видимость - горизонтальная дальность видимости в метрах или километрах. При видимости от 1 до 10 км при отсутствии осадков обычно наблюдается дымка, при ухудшении видимости до 1 км и менее - туман. В сухую погоду видимость может ухудшаться дымом, пылью или мглою.
Явления - указаны атмосферные явления, наблюдавшиеся в срок или в последний час перед сроком; фигурными скобками обозначены явления, наблюдавшиеся между сроками (за 1-3 часа до срока); квадратными скобками обозначены град или гололедные отложения с указанием их диаметра в мм.
Облачность - указаны через наклонную черту общая и нижняя облачность в баллах и высота нижней границы облаков в метрах; квадратными скобками обозначены формы облаков: Ci - перистые, Cs - перисто-слоистые, Cc - перисто-кучевые, Ac - высококучевые, As - высокослоистые, Sc - слоисто-кучевые, Ns - слоисто-дождевые, Cu - кучевые, Cb - кучево-дождевые. Подробнее классификацию облаков см. в Атласе облаков (PDF).
T - Температура воздуха - температура, измеренная на высоте 2 м над землей.
Td - Температура точки росы - температура, при понижении до которой содержащийся в воздухе водяной пар достигнет насыщения.
f - Относительная влажность воздуха - влажноcть воздуха, измеренная на высоте 2 м над землей.
Te - Эффективная температура - температура, которую ощущает одетый по сезону человек в тени. Характеристика душности погоды. При расчете учитывается влияние влажности воздуха и скорости ветра на теплоощущения человека.
Tes - Эффективная температура на солнце - температура, которую ощущает человек, с поправкой на солнечный нагрев. Характеристика знойности погоды. Зависит от высоты солнца над горизонтом, облачности и скорости ветра. Ночью, в пасмурную погоду, а также при ветре 12 м/с и более поправка равна нулю.
P - Атмосферное давление - приведенное к уровню моря атмосферное давление.
Po - Атмосферное давление - измеренное на уровне метеостанции атмосферное давление.
Tmin - Минимальная температура - минимум температуры воздуха на высоте 2 м над землей.
Tmax - Максимальная температура - максимум температуры воздуха на высоте 2 м над землей.
R - Количество осадков - Количество выпавших осадков за период времени, мм. При наведении курсора мыши на число - период времени, за который выпало указанное количество осадков.
R24 - Количество осадков - Количество выпавших осадков за 24 часа, мм.
S - Снежный покров - Высота снежного покрова, см. При наведении курсора мыши на число - состояние снежного покрова и степень покрытия местности в баллах.